Cloud_Cover
0 0 0 0 0 0 0 0 0 0 0 0 0 0 0 0 0 0 0 0 0 0 0 0 0 0 0 0 0 0 0 0 0 0 0 20 44 56 64 64 64 56 56 64 56 48 56 68 76 68 68 68 64 44 36 48 68 80 88 80 76 80 88 88 88 88 92 92 92
0 0 0 0 0 0 0 0 0 0 0 0 0 0 0 0 0 0 0 0 0 0 0 0 0 0 0 0 0 0 0 0 0 0 8 32 68 80 80 76 64 56 48 48 44 48 56 64 56 48 56 76 88 80 68 64 68 80 88 80 76 80 88 92 92 92 92 92 88
0 0 0 0 0 0 0 0 0 0 0 0 0 0 0 0 0 0 0 0 0 0 0 0 0 0 0 0 0 0 0 0 0 0 0 0 48 80 92 92 76 56 44 44 32 32 44 56 32 24 32 36 80 92 88 64 76 76 68 68 68 76 80 92 92 92 92 92 92
0 0 0 0 0 0 0 0 0 0 0 0 0 0 0 0 0 0 0 0 0 0 0 0 0 0 0 0 0 0 0 0 0 0 0 0 0 8 12 32 36 32 32 32 24 24 20 12 8 8 12 24 36 68 92 88 68 68 76 80 80 88 92 92 92 92 92 92 92
0 0 0 0 0 0 0 0 0 0 0 0 0 0 0 0 0 0 0 0 0 0 0 0 0 0 0 0 0 8 8 0 0 0 0 0 0 0 0 0 0 0 0 12 20 20 12 0 0 0 0 0 20 44 64 56 56 64 76 92 92 92 92 92 92 92 92 92 92
0 0 0 0 0 0 0 0 0 0 0 0 0 0 0 0 0 0 0 8 8 8 8 8 8 8 8 8 8 8 8 8 0 0 0 0 0 0 0 0 0 0 0 0 0 0 0 0 0 0 0 0 0 0 0 20 12 36 76 92 92 92 92 92 92 92 92 92 92
0 0 0 0 0 0 0 0 0 0 0 0 0 0 0 0 8 8 8 12 12 12 12 8 8 8 8 8 8 8 8 8 8 8 8 8 0 0 0 0 0 0 0 0 0 0 0 0 0 0 0 0 0 0 0 0 0 12 44 92 88 88 92 92 92 92 92 92 92
0 0 0 0 0 0 0 0 0 0 8 8 8 8 8 8 8 12 12 12 20 20 20 12 12 12 12 8 8 8 8 12 12 12 8 8 8 8 0 0 0 0 0 0 0 0 0 0 0 0 0 0 0 0 0 0 0 8 24 64 76 80 88 92 92 92 92 92 92
0 0 0 0 0 0 0 0 0 0 8 12 12 12 12 12 12 12 12 12 20 20 20 20 12 12 12 12 12 12 12 20 20 12 12 8 12 8 0 0 0 0 0 0 8 20 24 20 12 8 8 0 0 0 0 0 0 8 12 20 48 76 88 88 92 92 92 92 92
0 0 0 0 0 0 0 0 0 0 8 12 8 8 8 8 8 8 8 12 20 20 20 20 12 12 12 12 20 20 24 24 24 20 20 12 12 8 8 0 0 0 0 8 24 24 20 12 12 8 8 8 0 0 0 0 20 24 12 0 32 68 92 92 92 92 92 92 92
0 0 0 0 0 0 0 0 0 0 0 0 0 0 0 0 0 8 8 8 12 12 20 20 20 20 24 24 36 44 48 48 36 32 24 24 20 12 8 0 0 0 12 32 32 24 24 24 20 12 8 8 8 0 8 8 20 20 20 24 76 92 92 92 92 92 92 92 92
0 0 0 0 0 0 0 0 0 0 0 0 0 0 0 0 0 0 0 0 8 12 12 20 24 36 56 64 68 68 64 64 48 44 36 36 36 32 20 12 8 12 20 36 56 48 36 24 24 20 20 12 12 12 20 24 24 32 56 92 92 92 92 92 92 92 92 92 92
0 0 0 0 0 0 0 0 0 0 0 0 0 0 0 0 0 0 0 0 0 0 8 12 24 56 80 88 80 76 68 68 56 44 36 44 44 44 36 32 24 20 32 64 56 44 32 32 32 32 32 32 32 32 32 36 36 64 80 92 92 92 92 92 92 92 88 88 92
0 0 0 0 0 0 0 0 0 0 0 0 0 0 0 0 0 0 0 0 0 0 0 0 24 56 80 80 76 76 68 68 56 36 24 36 36 44 48 48 44 36 32 44 44 36 32 24 32 36 44 44 44 44 36 20 20 36 64 64 64 68 76 88 88 88 88 88 92
0 0 0 0 0 0 0 0 0 0 0 0 0 0 0 0 0 0 0 0 0 8 20 24 64 68 68 68 68 68 68 64 56 36 24 20 20 32 44 44 68 56 32 24 24 24 24 32 36 44 44 48 44 44 36 12 20 32 36 32 20 32 56 80 80 80 88 92 92
0 0 0 0 0 0 0 0 0 0 0 0 0 0 0 0 0 8 12 24 32 44 56 68 64 56 56 56 64 68 68 68 64 48 36 24 24 24 24 12 48 56 44 32 24 20 24 32 44 48 48 48 44 48 56 44 44 44 44 36 32 44 56 76 80 88 92 92 92
0 0 0 0 0 0 0 0 0 0 0 0 0 0 0 0 0 24 56 68 68 68 64 56 56 56 56 64 64 68 76 76 76 68 56 44 32 24 20 12 36 48 48 44 32 24 32 32 44 48 56 56 56 64 76 76 64 64 64 64 76 76 76 88 92 92 92 92 92
0 0 0 0 0 0 0 0 0 0 0 0 0 0 0 0 0 32 68 68 64 64 64 64 64 64 64 68 76 76 80 80 80 76 68 48 36 32 32 20 24 36 44 44 36 32 32 32 44 44 48 64 56 68 80 80 76 76 76 76 80 80 88 92 92 92 92 92 92
0 0 0 0 0 0 0 0 0 0 0 0 0 0 0 0 0 12 24 24 24 32 44 56 64 76 80 68 76 68 76 80 80 76 76 68 48 36 32 32 20 24 32 36 44 36 32 32 36 44 44 48 48 64 76 80 76 76 68 76 80 88 92 88 88 88 88 92 92
0 0 0 0 0 0 0 0 0 0 0 0 0 0 0 0 0 0 0 0 0 0 12 32 44 64 76 64 68 68 64 76 76 76 68 68 48 36 24 24 20 20 20 24 44 44 36 36 24 20 20 36 32 44 68 76 76 76 76 80 80 88 80 80 80 88 92 92 92
0 0 0 0 0 0 0 0 0 0 0 0 0 0 0 0 0 0 0 0 0 0 0 8 12 36 56 64 68 64 56 64 68 68 64 48 44 32 24 20 12 32 44 44 48 48 44 36 24 20 20 24 12 20 36 56 68 76 76 76 76 76 76 80 80 88 92 92 92
0 0 0 0 0 0 0 0 0 0 0 0 0 0 0 0 0 0 0 0 0 0 0 0 0 8 24 48 48 44 36 44 48 48 48 44 36 32 24 20 48 64 64 56 56 44 36 36 32 32 24 32 12 20 32 36 64 68 76 68 76 76 80 80 88 88 88 88 88
0 0 0 0 0 0 0 0 0 0 0 0 0 0 0 0 0 0 0 0 0 0 0 0 0 0 0 12 24 24 24 24 36 36 44 44 36 36 36 64 68 68 64 56 48 44 36 36 36 36 36 36 24 12 20 48 76 76 76 76 76 80 80 92 92 92 88 88 80
0 0 0 0 0 0 0 0 0 0 0 0 0 0 0 0 0 0 0 0 0 0 0 0 0 0 0 0 20 20 20 20 32 36 44 44 56 68 76 80 68 64 64 56 48 48 48 48 56 56 56 48 44 32 32 68 80 80 76 64 76 88 92 92 92 92 88 88 88
0 0 0 0 0 0 0 0 0 0 0 0 0 0 0 0 0 0 0 0 0 0 0 0 0 8 12 20 24 32 44 44 48 64 76 88 88 88 88 80 68 68 64 56 56 64 64 76 76 56 36 36 48 56 56 68 80 88 88 88 92 92 92 88 80 88 88 92 88
0 0 0 0 0 0 0 0 0 0 0 0 0 0 0 0 0 0 0 0 0 0 0 0 0 0 8 24 36 56 80 88 92 92 92 88 80 80 76 68 68 64 64 64 68 80 88 80 56 24 24 76 68 68 68 80 88 92 92 92 88 88 80 68 76 80 80 92 88
0 0 0 0 0 0 0 0 0 0 0 0 0 0 0 0 0 0 0 0 0 0 0 0 0 0 0 0 0 24 56 92 92 88 76 76 68 68 68 68 76 80 88 92 92 80 68 64 24 36 64 92 80 76 68 76 88 88 88 88 76 76 68 68 76 88 88 88 92
0 0 0 0 0 0 0 0 0 0 0 0 0 0 0 0 0 0 0 0 0 0 0 0 0 0 0 0 0 0 20 80 80 76 76 76 88 92 92 88 80 88 88 92 88 80 64 24 20 48 88 76 76 64 64 88 80 80 80 80 68 64 64 64 76 80 92 88 88
0 0 0 0 0 0 0 0 0 0 0 0 0 0 0 0 0 0 0 0 0 0 0 0 0 0 0 0 0 0 0 0 48 80 92 92 92 92 92 92 80 80 76 76 68 56 36 8 8 48 92 92 64 48 56 80 80 76 76 68 56 48 56 64 76 80 88 92 88
0 0 0 0 0 0 0 0 0 0 0 0 0 0 0 0 0 0 0 0 0 0 0 0 0 0 0 0 0 0 0 0 12 48 88 92 92 92 88 76 64 48 36 32 24 20 20 20 36 68 88 88 88 56 24 20 68 80 76 68 64 56 56 76 80 80 88 92 92
0 0 0 0 0 0 0 0 0 0 0 0 0 0 0 0 0 0 0 0 0 0 0 0 0 0 0 0 0 0 0 0 0 12 36 68 76 68 64 48 44 36 32 24 24 20 24 48 76 88 88 88 88 88 76 36 32 56 76 68 68 68 76 88 88 88 88 92 92
0 0 0 0 0 0 0 0 0 0 0 0 0 0 0 0 0 0 0 0 0 0 0 0 0 0 0 0 0 0 0 0 0 0 8 24 32 44 44 44 36 32 24 24 20 20 36 88 88 88 88 88 88 88 88 88 64 56 56 68 64 68 76 80 76 80 88 92 80
0 0 0 0 0 0 0 0 0 0 0 0 0 0 0 0 0 0 0 0 0 0 8 8 0 0 0 0 0 0 0 0 0 0 0 0 8 20 24 36 36 32 32 24 24 20 36 80 88 92 92 88 88 88 88 88 76 80 88 68 56 56 64 68 64 76 88 92 80
0 0 0 0 0 0 0 0 0 0 0 0 0 0 0 0 0 0 0 0 0 8 8 8 8 8 0 0 0 0 0 0 0 0 0 0 0 0 8 20 32 32 32 24 24 24 24 36 80 92 92 88 92 88 88 92 88 88 88 68 68 64 56 64 64 76 92 88 76
0 0 0 0 0 0 0 0 0 0 0 0 0 0 0 0 0 0 0 0 0 8 8 12 12 8 8 8 0 0 0 0 0 0 0 0 0 0 8 8 12 20 24 20 24 24 24 36 80 92 92 92 92 88 88 92 92 88 88 76 80 76 64 48 56 76 88 80 76
0 0 0 0 0 0 0 0 0 0 0 0 0 0 0 0 0 0 8 8 8 8 12 12 12 12 12 8 8 0 0 0 0 0 0 0 0 0 8 8 8 8 8 12 20 20 24 24 76 92 92 88 88 88 88 92 88 88 88 88 88 80 68 56 48 64 76 76 76
0 0 0 0 0 0 0 0 0 0 0 0 0 0 0 8 8 8 8 8 12 12 12 12 12 12 12 12 8 8 8 0 0 0 0 0 0 0 8 8 8 8 8 12 12 12 20 36 76 88 88 88 88 88 88 92 88 88 88 88 80 80 80 76 56 68 80 80 76
0 0 0 0 0 0 0 0 0 0 0 0 0 0 0 12 20 20 20 20 24 20 20 20 20 20 20 20 12 12 8 8 8 8 8 8 8 8 8 8 8 8 8 8 8 8 12 32 76 88 88 88 88 88 88 88 92 88 88 88 88 92 92 92 76 68 76 80 88
0 0 0 0 0 0 0 0 0 0 0 0 0 0 0 20 24 24 24 32 36 36 32 24 24 24 24 24 24 20 12 12 8 8 8 8 8 8 8 8 8 8 8 8 8 8 8 8 68 88 88 88 88 88 88 88 88 88 88 92 92 92 92 92 88 76 76 88 92
0 0 0 0 0 0 0 0 0 0 0 0 8 12 12 24 36 36 36 44 48 48 48 36 32 32 36 44 36 32 24 20 20 12 12 12 8 12 12 8 8 0 0 0 0 0 8 0 64 88 88 88 88 88 88 88 88 88 88 92 92 92 92 92 92 88 88 92 92
0 0 0 0 0 0 0 0 0 0 0 0 24 32 36 36 44 48 48 48 48 56 64 56 36 36 44 44 44 36 36 32 24 20 12 12 20 24 24 12 8 8 0 0 0 0 0 0 56 80 88 88 88 88 88 88 88 88 88 92 92 92 92 92 92 92 92 92 92